Lapse_Rate
3.2 4.4 5.9 7.2 7.5 7.1 7.6 7.2 7.0 6.7 6.7 6.8 7.1 7.1 7.1 7.3 7.0 6.9 6.7 7.0 6.4 6.1 7.5 6.9 6.2 6.3 7.2 7.3 7.2 7.7 7.2 6.9 6.4 5.9 5.8 5.4 5.5 6.0 6.4 6.5 6.3 7.0 6.5
3.7 3.8 5.6 7.3 7.2 7.2 7.1 6.6 6.7 6.7 6.7 6.9 7.3 7.3 7.5 7.3 8.2 8.2 7.9 7.9 7.0 7.5 8.1 7.5 6.6 7.0 6.9 6.5 6.6 7.6 7.6 6.8 6.4 5.7 5.1 4.2 4.2 5.7 6.4 7.0 6.7 7.2 7.2
3.5 3.8 6.3 6.8 6.8 7.1 6.9 6.2 6.1 6.0 6.2 6.3 6.7 6.9 7.1 7.7 8.1 7.7 8.1 8.8 7.9 7.2 8.0 7.5 7.0 6.3 6.3 6.6 7.0 7.3 7.0 6.8 6.4 5.7 4.6 5.6 5.4 5.4 6.5 7.0 6.8 7.0 7.2
4.1 3.9 5.7 6.1 6.5 6.4 6.4 6.2 5.9 5.9 5.9 6.0 6.4 7.2 7.6 7.5 7.6 7.5 7.5 7.4 6.9 6.4 6.3 6.6 6.6 6.8 6.7 7.2 7.0 6.8 6.8 6.5 5.5 4.9 5.6 5.4 5.4 5.1 5.9 6.7 7.2 7.8 8.0
3.9 4.3 5.0 5.8 6.3 6.1 5.9 5.8 5.9 6.1 6.1 6.3 7.0 8.8 9.6 8.9 7.8 7.6 7.4 7.0 6.3 5.9 5.7 5.8 6.2 6.5 6.4 6.4 6.5 6.6 6.4 6.0 5.4 4.9 5.3 5.0 5.0 5.1 5.5 6.5 7.4 8.3 7.7
2.8 4.1 4.6 5.8 6.1 6.0 6.2 6.2 6.1 6.2 6.3 6.4 6.9 8.8 8.8 8.5 9.1 7.9 7.0 6.5 6.0 5.6 5.4 5.6 5.6 5.9 5.9 5.8 5.9 5.9 6.1 5.9 5.6 6.1 5.8 5.6 5.2 4.5 5.6 6.3 7.0 7.7 8.0
2.4 3.5 5.1 5.8 6.1 6.1 6.5 6.2 6.1 6.2 6.1 6.3 6.6 7.8 9.0 7.6 7.7 7.9 7.4 6.7 6.1 5.8 5.6 5.7 5.8 6.0 6.1 6.0 6.5 7.0 6.3 6.0 6.6 6.6 6.3 5.9 5.5 5.1 6.1 6.5 6.9 7.7 8.9
2.3 3.2 4.7 5.5 5.9 5.8 6.2 6.0 5.9 6.0 5.9 6.0 6.2 7.2 8.0 7.8 7.3 8.1 7.3 6.8 6.2 5.9 5.9 5.9 6.0 6.2 6.2 6.3 6.6 6.5 6.0 5.8 6.4 6.6 6.3 6.1 5.1 5.5 6.6 7.1 7.0 7.2 7.2
3.3 3.7 4.1 5.2 5.8 5.7 5.9 5.9 5.7 6.0 6.0 5.9 5.9 6.5 7.2 7.2 7.3 7.3 7.1 6.8 6.3 6.0 6.0 5.9 6.1 6.2 6.3 6.5 6.5 6.3 5.9 5.5 6.6 6.6 6.1 6.3 5.0 5.7 6.6 6.9 7.2 7.1 7.1
3.4 4.2 4.4 4.5 5.4 5.9 6.4 5.7 5.6 5.7 5.8 5.8 5.7 5.9 5.9 6.3 6.4 7.1 6.9 6.2 6.4 6.3 6.1 6.0 6.1 6.4 6.4 6.3 6.1 5.8 5.4 5.5 6.6 6.1 6.2 6.1 5.2 6.4 7.0 7.4 7.5 7.3 7.4
3.1 3.7 4.2 4.6 4.9 5.2 5.4 5.8 5.5 5.5 5.5 5.6 5.5 5.3 5.3 5.7 5.8 6.3 5.5 5.4 5.6 5.9 6.1 6.2 6.3 6.2 5.8 5.5 5.0 4.8 4.7 6.4 6.3 6.3 6.3 5.6 6.5 7.3 7.6 7.5 7.4 7.5 7.6
3.2 3.3 3.7 4.4 4.6 4.6 4.9 5.4 5.6 5.7 6.0 6.0 5.6 5.4 5.5 5.2 5.1 5.2 5.1 5.1 5.2 5.5 5.4 5.5 5.6 5.2 5.8 6.6 6.6 5.3 6.4 6.3 6.3 6.2 6.3 5.6 6.6 7.5 7.7 7.6 7.6 7.5 7.5
3.1 3.2 3.4 4.0 4.3 4.4 4.6 4.4 4.9 5.1 5.2 5.4 5.2 5.1 5.1 5.0 4.9 5.3 5.4 5.4 5.4 5.1 6.0 5.8 6.2 6.4 6.4 6.6 6.3 5.7 5.5 5.9 5.8 5.7 5.0 5.1 6.2 6.7 7.3 7.4 7.4 7.1 7.5
3.1 3.6 3.3 3.7 3.6 3.9 4.4 4.1 4.3 4.8 4.8 5.0 5.0 4.7 5.3 5.4 5.2 5.6 5.5 5.2 5.4 5.6 6.2 6.1 6.3 5.2 5.1 4.4 4.3 5.5 5.2 5.0 5.0 4.9 4.3 4.0 4.9 5.9 6.8 7.2 7.4 7.0 6.7
3.2 3.2 3.1 3.1 2.9 3.3 3.2 3.5 3.6 4.9 5.0 5.3 5.0 5.1 5.3 5.4 5.7 5.7 5.6 5.5 5.5 5.7 6.1 5.3 4.9 4.6 3.8 4.5 4.5 4.5 4.5 4.1 3.7 3.7 3.6 3.2 4.3 5.5 6.2 6.8 6.6 6.2 6.3
3.7 3.2 3.1 2.3 2.1 2.8 2.8 3.0 3.7 4.8 5.3 5.2 4.7 4.5 4.6 4.9 4.7 4.3 4.0 3.9 3.9 4.0 4.0 4.8 4.6 4.6 4.2 4.0 4.5 3.6 3.5 3.1 3.1 3.0 3.2 3.4 3.4 5.1 5.8 5.9 6.0 5.9 6.0
3.9 3.4 2.1 2.3 1.8 1.6 2.6 3.5 4.3 4.9 5.2 4.5 4.5 4.8 4.5 4.1 4.1 3.4 3.2 3.1 3.4 4.4 3.6 4.0 3.6 3.4 3.5 3.2 3.8 3.6 3.4 3.1 3.1 3.2 3.3 3.6 3.8 3.8 5.0 5.1 5.1 5.1 5.1
2.6 2.2 2.1 1.9 1.2 1.2 2.2 3.7 4.2 5.0 5.4 4.5 4.6 4.4 3.8 3.7 3.5 3.2 2.5 2.5 2.1 3.4 3.5 3.1 2.5 2.7 2.5 2.5 3.2 3.7 3.3 2.8 3.3 3.5 3.6 4.0 3.9 4.1 3.9 3.7 3.6 3.6 4.1
3.2 2.3 1.6 1.3 1.1 0.7 1.6 3.2 4.3 4.9 5.1 4.3 3.2 3.2 3.3 3.3 3.5 2.2 1.4 1.9 2.1 2.1 1.8 2.4 1.3 1.8 1.6 2.3 3.0 3.8 2.7 2.6 3.4 3.6 4.1 4.1 3.4 3.4 3.6 2.9 2.6 2.7 3.2
2.1 1.6 1.4 0.8 0.5 0.8 1.2 2.4 3.2 3.3 2.1 2.4 1.6 2.1 2.0 1.7 1.9 1.6 0.5 1.4 1.2 1.3 1.5 1.5 1.3 1.0 1.3 1.5 3.0 3.8 2.4 2.4 2.9 3.5 4.5 4.3 3.5 3.4 3.2 2.8 2.9 3.0 2.6
1.6 1.0 0.6 0.5 0.4 0.5 0.4 2.0 2.8 2.4 0.9 1.2 0.7 1.3 1.4 0.9 1.1 0.6 1.1 0.5 0.3 0.9 0.9 1.3 1.4 1.7 1.9 1.5 3.2 3.6 3.3 2.9 3.3 4.0 4.5 4.2 3.2 2.8 2.6 3.4 3.7 3.4 3.2
2.1 0.8 0.6 0.7 0.7 0.9 1.4 1.2 1.7 0.5 -0.7 -0.1 0.7 0.7 1.3 0.7 0.1 0.8 0.7 0.1 0.5 0.7 0.8 1.0 1.5 2.0 1.8 1.4 3.0 2.9 4.6 5.4 4.8 4.4 2.9 3.3 3.5 3.3 3.8 4.0 3.2 3.3 3.4
1.4 0.5 0.5 0.2 0.7 0.5 -0.5 -0.4 -0.1 -0.4 0.6 0.8 0.8 0.1 0.7 0.5 -0.4 0.1 -0.2 -0.2 0.2 0.7 0.4 0.4 1.1 1.9 2.8 2.2 2.7 4.8 6.1 6.8 4.7 4.2 4.6 4.1 4.4 4.1 4.1 3.4 3.1 3.4 3.1
1.7 0.4 0.3 0.2 0.4 0.3 0.8 1.2 1.4 1.0 2.0 2.2 0.4 -0.2 -0.4 -0.3 -0.8 -0.3 -0.5 -0.3 -0.0 0.0 0.8 0.9 1.1 1.9 2.6 3.1 3.2 3.7 4.3 5.5 7.2 7.5 5.8 6.0 4.8 4.9 3.8 3.6 3.7 3.4 3.7
0.4 0.2 -0.4 0.0 0.6 0.6 1.7 2.3 2.8 1.8 0.7 0.1 0.3 -0.4 -1.1 -1.0 -0.3 -0.7 -0.5 -0.7 -0.1 0.2 0.5 1.0 1.5 2.1 2.6 2.9 3.3 3.6 3.8 4.6 4.7 6.6 7.6 6.2 5.4 5.4 4.7 4.8 4.1 4.5 4.7
0.1 -0.3 -0.5 0.1 0.3 1.0 1.7 1.8 1.6 0.4 0.2 -0.1 -0.2 -0.5 -1.5 0.1 -0.4 -0.8 -0.9 -0.6 -0.1 0.4 0.8 1.3 1.6 2.0 2.5 2.6 3.0 3.4 4.3 5.5 6.4 7.0 8.1 8.1 7.9 7.3 6.0 5.2 4.9 5.3 5.3
Wind_Speed
6 14 15 18 17 16 16 15 13 11 10 9 8 9 10 11 9 7 6 5 6 4 3 3 1 6 10 11 12 10 7 8 9 7 7 6 4 3 2 2 1 3 5
11 16 16 20 18 18 17 15 13 11 10 8 8 8 6 9 9 6 4 5 6 5 6 8 9 8 10 11 9 9 7 6 6 6 6 4 4 4 2 5 5 3 5
14 16 20 18 19 18 17 15 13 11 9 7 7 7 7 7 6 3 4 5 4 5 6 7 8 11 12 11 10 9 7 5 3 3 4 3 3 4 4 6 6 5 5
14 17 17 18 21 19 16 14 12 11 9 8 6 6 6 5 6 5 5 4 4 4 3 4 5 6 7 8 5 3 3 2 2 2 3 4 5 6 6 5 6 9 8
13 13 14 19 19 19 18 15 12 10 9 9 9 9 8 10 7 6 5 5 5 5 3 3 4 4 3 3 3 3 4 3 3 2 4 5 5 5 7 7 7 7 7
13 13 14 16 17 18 18 16 13 11 9 9 10 8 7 3 7 7 6 5 4 4 4 3 3 3 4 4 4 4 4 3 2 4 4 5 5 7 8 8 8 8 8
12 14 15 15 15 18 17 16 14 12 10 9 9 8 6 2 7 9 7 5 3 3 4 3 2 2 2 4 4 3 3 4 5 6 6 6 7 8 9 8 9 10 11
13 14 15 16 15 18 17 16 14 12 10 9 9 8 7 5 3 8 9 6 3 1 2 2 3 4 4 5 5 6 7 7 5 7 7 7 8 10 10 8 10 11 13
10 11 14 16 16 16 17 16 15 13 11 10 9 9 4 3 4 10 9 6 3 1 1 3 4 5 5 5 6 6 6 6 6 6 7 7 7 10 10 12 12 13 14
7 9 10 14 14 13 17 17 15 13 11 10 9 8 6 3 6 7 7 4 2 1 2 4 5 5 5 6 7 7 8 7 5 6 6 7 10 10 11 10 12 15 16
6 9 8 10 13 12 14 15 15 14 12 11 10 9 7 3 3 3 2 0 1 3 4 5 5 5 5 4 5 6 5 4 4 4 4 8 9 10 11 11 11 10 9
9 9 9 10 11 13 12 13 13 12 10 9 9 8 6 4 2 0 1 2 3 3 4 4 5 5 4 4 4 5 5 4 5 5 5 10 10 9 9 10 10 10 11
8 8 11 11 11 11 10 11 10 10 9 8 8 8 6 5 3 2 0 1 1 1 1 3 3 3 5 6 6 6 5 5 5 5 6 10 9 9 9 9 10 11 11
9 11 12 12 11 10 10 9 11 9 9 8 8 8 6 4 4 2 2 1 1 1 1 2 5 7 8 9 8 6 5 5 5 4 5 9 9 8 8 8 10 12 12
9 10 11 13 12 11 9 8 9 8 10 9 9 9 7 5 3 4 4 4 5 5 6 6 6 6 7 6 7 6 5 5 5 3 4 10 10 10 10 11 12 12 12
10 10 11 14 15 13 12 12 9 11 12 11 10 10 10 8 7 6 5 6 7 7 7 6 6 5 4 6 5 6 4 5 3 4 4 7 12 12 12 13 13 14 14
10 7 10 13 15 16 15 12 8 11 12 9 9 12 11 8 9 8 5 4 6 6 8 7 6 6 4 5 4 3 3 5 3 4 5 6 8 13 13 14 15 15 16
8 9 7 9 15 16 14 11 9 10 10 9 9 10 11 12 12 9 5 5 9 7 6 5 4 4 4 5 4 3 3 2 4 6 6 7 8 7 9 15 16 17 17
10 9 8 10 14 15 13 10 10 10 7 9 10 11 14 14 13 11 7 7 10 8 6 4 5 4 5 6 5 4 4 2 4 6 7 6 8 7 6 9 15 15 16
8 7 7 7 11 13 10 9 7 7 6 9 8 10 14 13 14 13 9 9 9 6 5 5 6 5 5 7 5 4 3 2 3 3 4 2 4 8 7 10 14 14 17
6 7 8 10 12 11 10 10 8 7 6 7 6 13 14 15 13 14 9 9 10 8 6 5 3 6 6 7 4 4 2 2 2 2 5 1 4 6 7 12 17 17 15
8 10 9 10 14 11 10 7 5 6 6 6 6 12 12 14 14 12 10 8 8 7 7 7 5 2 3 6 4 1 4 1 3 3 1 2 4 8 9 20 19 17 16
11 12 10 11 13 11 13 11 10 10 7 5 6 6 5 14 14 14 13 11 7 6 6 5 5 4 3 4 7 3 2 2 5 3 3 3 7 6 12 15 15 16 17
13 10 11 12 12 12 14 14 19 10 10 6 6 6 6 12 13 14 14 13 9 7 6 5 4 4 2 3 1 4 2 2 3 5 2 5 2 11 10 9 13 16 16
11 12 12 12 12 13 13 15 12 13 9 9 8 11 9 7 13 13 13 12 8 6 6 6 5 4 3 2 2 1 1 2 2 4 8 7 10 9 9 7 13 11 15
10 11 12 14 11 12 13 14 15 18 16 12 10 8 7 7 7 11 12 11 9 7 6 4 4 4 3 3 1 1 1 2 3 4 6 12 12 8 11 9 7 11 14
Wind_Direction
215 176 181 159 148 141 133 140 140 137 130 131 140 143 144 142 125 107 93 85 60 52 98 122 185 221 175 147 121 112 104 88 83 68 49 52 57 41 358 319 257 283 300
157 171 174 160 150 147 141 144 141 139 136 129 132 137 153 146 123 107 89 82 74 54 32 63 47 102 132 116 102 86 85 100 91 71 58 62 50 22 346 277 251 267 275
157 164 166 153 145 141 144 145 143 140 134 125 124 125 118 114 106 102 93 93 89 51 33 41 47 63 78 89 81 78 82 89 94 62 49 16 3 348 338 344 207 233 253
159 163 165 152 145 146 147 146 144 141 137 130 125 126 122 126 121 108 111 83 61 46 52 31 40 52 54 57 64 61 56 45 97 70 332 328 319 313 313 311 228 229 226
157 166 161 151 149 152 151 151 149 146 144 144 140 152 132 137 134 124 117 101 78 64 57 51 41 48 48 34 15 2 8 12 21 350 330 325 316 311 303 284 289 259 242
154 166 160 155 155 156 155 156 154 157 159 157 158 172 176 169 161 147 131 115 92 87 73 66 57 39 39 29 19 18 1 354 333 329 320 312 309 307 308 290 285 284 264
165 166 172 165 165 162 160 160 161 164 164 168 171 179 217 173 211 169 155 137 116 94 79 60 63 8 346 327 304 295 295 322 312 309 310 310 309 310 305 295 280 275 286
164 167 177 174 169 167 166 166 167 170 168 171 178 183 211 265 215 178 162 158 160 124 73 8 347 328 322 318 320 327 336 335 312 308 308 305 302 302 299 292 279 269 268
166 170 179 182 182 175 172 170 172 173 173 174 178 180 198 333 315 189 160 164 179 157 313 323 322 321 310 311 317 323 326 325 312 306 308 307 304 298 293 286 276 267 261
173 185 185 184 185 187 182 174 175 173 173 173 178 174 145 73 53 124 137 165 205 310 314 315 317 311 316 326 331 332 332 321 328 323 319 315 312 305 300 307 308 283 277
192 195 191 190 190 188 182 185 179 179 177 176 175 170 159 144 94 87 88 289 291 327 332 326 328 332 334 340 355 351 347 352 356 357 352 345 341 337 336 343 347 346 349
201 197 193 198 196 189 183 184 185 183 187 183 173 175 175 170 147 72 311 301 299 302 319 333 335 351 355 0 7 19 21 25 32 13 6 356 350 345 348 352 3 6 6
199 197 198 199 199 194 193 179 182 183 181 182 174 174 172 161 133 150 228 296 253 235 272 334 342 18 42 46 39 42 34 31 31 10 4 9 6 360 359 8 9 9 10
204 208 199 197 197 195 199 185 187 184 183 180 181 176 171 161 150 159 103 41 38 45 58 62 74 67 56 45 32 19 22 18 14 359 13 21 25 13 10 20 25 34 24
229 219 208 198 199 194 188 190 185 191 186 183 177 182 174 171 164 147 120 95 84 81 83 80 68 61 45 30 22 12 6 13 10 20 35 36 43 40 39 44 39 31 18
238 224 211 206 199 194 193 190 188 191 186 178 180 181 183 180 158 136 117 96 78 79 68 67 61 53 43 27 13 7 4 6 18 56 71 65 52 51 51 44 34 22 11
243 241 211 208 197 195 194 189 184 188 182 178 176 180 182 159 146 130 119 106 90 87 80 69 66 53 33 14 4 353 354 4 90 73 77 73 60 53 52 39 26 15 5
260 257 244 208 195 194 192 185 180 179 179 174 163 155 142 137 132 116 102 97 101 85 84 69 44 53 19 2 342 344 350 353 113 99 87 79 61 54 51 38 24 10 360
257 255 236 205 194 186 182 173 172 165 160 149 128 124 127 124 121 107 101 109 103 92 75 74 56 45 17 353 335 342 353 107 113 101 79 79 59 50 34 17 12 6 355
247 237 227 199 180 170 155 140 127 126 109 119 117 117 118 114 117 112 113 116 102 86 73 74 76 58 27 352 323 336 29 84 152 91 66 58 57 33 25 4 355 347 342
223 209 196 174 170 157 151 145 145 140 130 108 99 111 111 112 124 118 121 103 86 82 74 58 82 49 28 3 340 345 27 33 201 220 341 41 38 15 2 350 348 341 334
211 200 189 180 173 167 157 138 128 129 104 104 96 95 111 111 113 115 109 99 95 95 79 61 54 91 46 20 15 299 1 327 19 283 54 31 11 346 353 343 336 330 326
206 199 185 173 170 152 133 115 106 100 104 104 105 98 101 111 109 108 105 102 97 100 88 80 66 67 65 56 41 26 340 323 334 321 313 345 346 346 332 326 320 317 316
208 184 170 166 158 148 150 142 152 150 150 149 126 116 101 106 108 107 104 104 102 98 102 92 77 74 89 45 57 45 32 302 317 309 282 293 315 320 313 312 312 312 308
177 179 161 156 160 157 156 152 148 134 118 121 119 114 109 104 107 107 108 105 105 103 100 98 91 79 71 94 53 11 350 300 255 264 303 308 310 311 308 306 307 299 303
159 157 154 155 153 153 148 145 141 135 136 130 132 129 119 120 112 107 106 106 107 108 103 99 99 88 81 88 99 129 291 300 298 293 293 306 302 311 314 303 294 306 306